星链-3069 (STARLINK-3069 )

导读 | 豆包AI

STARLINK-3069是美国太空探索技术公司(SpaceX)于2021年9月14日发射的星链(Starlink)低轨互联网卫星,属于星链星座V1.5版本卫星批次,搭载了激光星间链路技术,用于增强卫星间数据传输能力。作为星链全球互联网星座部署中的一环,它运行在近地轨道,为全球偏远地区、海洋航空等场景提供宽带互联网接入服务,是星链实现全球覆盖进程中的重要组成部分,目前已投入正常运营。

Basic Information
目录编号:
49176
目录名称:
STARLINK-3069
国际标识:
2021-082AY
轨道中心:
EARTH
卫星名称:
星链-3069
卫星全名:
星链-3069 (STARLINK-3069 )
卫星状态:
在轨 (已飞行1689 天)
发射日期:
2021-09-14 UTC
国别 :
美国 (US)
星等 :
--
Orbit Information
数据来源 国际轨道数据 AOE轨道数据
星历时间 2026-04-30T13:51:08+0800
14小时前
查看轨道信息
2026-04-27T07:00:00+0800
3天前
查看轨道信息
半长轴 6950.189km 6950.18km
偏心率 0.0003113 0.0003266
轨道倾角 69.999° 69.999°
近地点辐角 267.575° 272.660°
升交点赤经 124.467° 132.751°
平近点角 92.506° 10.435°
近地点 569.888km 569.773km
远地点 574.216km 574.313km
周期 96.107分钟 96.107分钟
每日圈数 14.983315 14.983344
Detailed Information
固有亮度:
5
最大亮度:
2.5
卫星平台:
Starlink v1.5
覆盖范围:
全球
运营商:
太空探索技术公司
运营商所在国:
美国
制造商(研发单位):
太空探索技术公司
制造商所在国:
美国
使用方式:
暂无
Satellite Introduction
星链(Starlink)计划是由太空探索技术公司(SpaceX)提出的一个巨型低轨卫星互联网星座项目,计划在2019年至2024年间在太空搭建由约1.2万颗卫星组成的“星链”网络,其中1584颗将部署在地球上空550千米处的近地轨道,并从2020年开始工作。该卫星仍在工作。
2D Orbit Map
3D Orbit Map
Orbit Altitude Analysis Chart
Orbit Inclination Analysis Chart
Orbit Comprehensive Analysis Chart
View Comprehensive Chart